Tracking 31027 objects as of 19-Jul-2025
HD Live streaming from Space Station
objects crossing your sky now

COSMOS 2251 DEB

Track COSMOS 2251 DEB now!
10-day predictions


NORAD ID: 34819
Int'l Code: 1993-036ABJ
Perigee: 682.6 km
Apogee: 708.9 km
Inclination: 74.0 °
Period: 98.5 minutes
Semi major axis: 7066 km
RCS: 0.004 m2 (small)
Launch date: June 16, 1993
Source: Commonwealth of Independent States (former USSR) (CIS)
Launch site: PLESETSK MISSILE AND SPACE COMPLEX (PKMTR)

Note: This is SATELLITE DEBRIS
Your satellite tracking list
STARLINK-5088
Track 1 satellite(s)




NASA's NSSDC Master Catalog

Two Line Element Set (TLE):
1 34819U 93036ABJ 25199.61674615  .00003715  00000-0  75457-3 0  9995
2 34819  74.0192  64.8284 0018565 189.1655 203.7963 14.61409103860780
Source of the keplerian elements: AFSPC